Location: Acy
(49.3452°N, 3.4117°E)
Time: 14:58:03
(UTC+00:00)

Daily predictions for brighter satellites

Satellite Brightness Start Highest point End
(mag) Time Altitude Azimuth Time Altitude Azimuth Time Altitude Azimuth
Cosmos 1741 Rocket 4.2 20:28:09 10° NNW 20:33:29 78° WSW 20:38:48 10° SSE
CARTOSAT-1 3.6 20:30:36 10° SSE 20:34:54 78° ENE 20:39:14 10° N
Cosmos 1606 Rocket 4.2 20:31:11 10° N 20:35:16 39° ENE 20:39:21 10° SE
USA 245 3.1 20:33:00 10° SSE 20:36:45 59° ENE 20:39:47 10° N
Cosmos 2322 Rocket 4.3 20:33:45 10° N 20:37:27 17° NE 20:41:08 10° ENE
Ariane Rocket 3.2 20:33:54 10° S 20:38:59 74° WSW 20:44:07 10° NNW
PSLV R/B 4.4 20:37:09 10° N 20:41:18 67° WNW 20:45:26 10° SSW
CZ-4B R/B 1.3 20:42:35 10° N 20:45:28 69° WNW 20:48:21 10° SSW
USA 234 4.3 20:41:34 10° ENE 20:47:46 46° N 20:53:57 10° WNW
ATLAS 2AS CENTAUR R/B 4.3 20:42:44 10° WNW 20:48:23 27° WSW 20:53:45 10° SSW
ARIANE 5 R/B 3.8 20:44:34 10° SE 20:48:28 31° ENE 20:52:21 10° N
Terra 2.5 20:44:21 10° SE 20:48:51 43° ENE 20:53:21 10° N
SPOT 3 Rocket 3.6 20:45:23 10° SSE 20:50:35 88° WSW 20:55:51 10° NNW
SPOT 5 2.8 20:47:16 10° SSE 20:51:32 61° ENE 20:55:50 10° N
RESURS DK-1 3.6 20:48:16 10° NW 20:52:05 36° WSW 20:55:53 10° S
USA 276 2.1 20:49:53 10° W 20:52:55 79° N 20:55:57 10° E
FALCON 9 DEB 3.3 20:51:01 10° WNW 20:54:15 66° NNE 20:57:30 10° ESE
Cosmos 1455 4.1 20:51:13 10° NNW 20:54:31 28° W 20:57:48 10° SSW
Cosmos 1726 Rocket 3.9 20:53:00 10° N 20:57:14 50° ENE 21:01:15 11° SSE
IRAS Rocket 4.3 20:56:20 10° NNE 21:01:58 89° ESE 21:07:31 10° SSW
Cosmos 1331 Rocket 4.0 20:57:49 10° SSW 21:03:08 86° ESE 21:08:28 10° NNE
Cosmos 2074 Rocket 4.3 20:57:21 10° NNW 21:03:36 69° W 21:09:46 10° S
Cosmos 2082 Rocket 2.6 20:58:53 10° S 21:04:16 44° ESE 21:09:39 10° NE
Helios 1A Rocket 2.9 21:04:55 11° SSE 21:08:53 83° ENE 21:13:02 10° NNW
Spot 2 Rocket 3.5 21:04:12 10° SSE 21:09:19 89° WSW 21:14:28 10° NNW
Cosmos 1328 3.9 21:05:33 10° S 21:09:29 60° E 21:13:26 10° NNE
Cosmos 2084 Rocket 3.8 21:06:40 10° NW 21:10:27 50° SW 21:13:53 13° SSE
Cosmos 2360 Rocket 4.2 21:08:06 10° N 21:12:09 19° NE 21:16:10 10° E
Nadezhda 1 Rocket 3.9 21:08:48 10° S 21:14:52 83° E 21:20:59 10° N
X-37B 2.5 21:23:27 10° SW 21:24:50 13° SSW 21:25:27 12° SSW
ERS-1 Rocket 3.1 21:22:07 11° S 21:26:55 74° WSW 21:31:58 10° NNW
Cosmos 1892 3.2 21:26:27 17° SSE 21:29:01 41° E 21:32:36 10° NNE
Cosmos 2228 4.4 21:30:52 10° NNW 21:34:43 34° W 21:38:34 10° SSW
Cosmos 1302 Rocket 3.9 21:30:01 10° SSW 21:35:13 81° ESE 21:40:27 10° NNE
Cosmos 192 4.4 21:33:35 10° SSW 21:38:28 83° WNW 21:43:25 10° NNE
Cosmos 1892 Rocket 3.5 21:38:01 11° S 21:42:14 89° ESE 21:46:38 10° N
Cosmos 968 Rocket 3.8 21:37:12 10° NNW 21:42:21 62° WSW 21:46:30 16° S
ASTRO F (AKARI) 4.4 21:40:19 20° SSE 21:42:38 86° ENE 21:46:08 10° NNW
Cosmos 1697 Rocket 4.1 21:39:52 10° NW 21:44:44 31° WSW 21:49:34 10° SSW
Cosmos 1980 Rocket 2.6 21:40:07 10° NW 21:45:42 57° WSW 21:50:07 16° S
Cosmos 2219 Rocket 4.5 21:44:06 10° N 21:47:50 18° NE 21:51:34 10° ENE
SL-16 R/B 2.8 21:43:00 10° NNW 21:48:33 50° NE 21:52:57 16° SE
Cosmos 2058 Rocket 3.1 21:45:40 10° NNW 21:50:07 82° W 21:53:20 19° S
Cosmos 1408 2.4 21:48:44 17° S 21:51:16 88° W 21:54:45 10° N
Cosmos 1626 Rocket 4.1 21:50:06 21° SSE 21:52:32 40° E 21:56:38 10° NNE
SL-8 Rocket 4.0 21:47:00 10° N 21:53:16 83° E 21:58:01 18° SSE
CZ-2C R/B 4.0 21:49:25 10° N 21:53:57 68° WNW 21:58:22 10° SSW
Cosmos 2369 4.5 21:48:39 10° NW 21:54:04 45° WSW 21:58:31 15° S
ATLAS 5 CENTAUR R/B 1.4 21:50:51 12° SSW 21:54:10 51° SE 21:58:13 10° NE
USA 267 3.9 21:48:50 10° ENE 21:54:31 31° SE 21:59:31 13° S
SJ 16-02 2.4 21:56:37 10° N 22:00:44 35° ENE 22:03:35 17° ESE
SL-4 R/B 3.6 22:04:44 15° ESE 22:04:44 15° ESE 22:05:39 10° E
In-Cosmos 22 Rocket 4.1 21:59:05 17° S 22:03:26 73° E 22:08:51 10° NNE
COSMOS 2406 4.0 21:58:59 10° SW 22:04:38 55° NW 22:10:18 10° NNE
Cosmos 1825 2.1 22:08:00 26° S 22:09:58 69° E 22:13:43 10° NNE
Cosmos 1833 Rocket 4.4 22:05:09 10° WSW 22:10:13 33° NW 22:15:19 10° NNE
Cosmos 2366 rocket 4.1 22:07:17 10° N 22:13:40 85° W 22:18:15 20° S
Cosmos 1869 3.2 22:12:29 10° N 22:16:24 84° W 22:18:25 28° S
Cosmos 2218 Rocket 4.1 22:13:42 10° NNW 22:20:08 77° W 22:24:43 20° S
Cosmos 2322 Rocket 2.5 22:16:59 10° NNW 22:22:40 64° ENE 22:26:28 21° SE
GP-B 3.4 22:19:03 10° N 22:23:28 62° W 22:26:26 20° SSW
Meteor 1-27 4.3 22:18:15 10° NNW 22:23:48 70° W 22:27:27 22° S
ARIANE 5 R/B 3.9 22:21:46 15° SSW 22:24:52 33° W 22:28:53 10° NNW
Terra 3.4 22:22:57 11° SSW 22:26:46 27° W 22:30:48 10° NW
SAR-Lupe-4 3.6 22:24:05 10° NNE 22:27:40 79° WNW 22:29:35 26° SSW
USA 276 2.4 22:25:41 10° W 22:28:34 42° SSW 22:28:42 41° SSW
USA 234 3.6 22:23:48 10° ESE 22:30:18 68° NNE 22:36:49 10° WNW
FALCON 9 DEB 4.0 22:27:28 10° W 22:30:21 29° SW 22:30:31 29° SSW
BREEZE-M DEB (TANK) 3.5 22:33:12 10° W 22:36:15 84° S 22:47:18 10° ESE
Cosmos 1633 2.3 22:39:01 39° S 22:40:11 79° E 22:43:39 10° NNE
Cosmos 1992 Rocket 4.4 22:37:42 10° SW 22:42:49 63° WNW 22:48:03 10° NNE
Cosmos 2333 Rocket 3.2 22:38:01 10° NNW 22:43:30 42° NE 22:48:05 14° ESE
Okean 1-7 Rocket 4.2 22:40:57 18° SSW 22:44:04 54° WNW 22:48:31 10° N
Cosmos 1758 Rocket 3.5 22:42:24 31° S 22:44:23 70° E 22:48:47 10° NNE
ASTEX 1 4.3 22:42:30 10° N 22:47:15 44° WNW 22:51:10 14° SW
Cosmos 2082 Rocket 3.6 22:43:08 10° WSW 22:48:26 38° NW 22:53:45 10° NNE
Cosmos 1606 2.7 22:49:08 10° N 22:53:00 77° ENE 22:54:21 39° SSE
Cosmos-2242 2.9 22:49:08 10° NNW 22:53:23 79° W 22:55:10 34° S
Cosmos 1812 Rocket 3.8 22:49:42 10° NNW 22:54:07 63° W 22:56:09 30° SSW
Cosmos 2360 Rocket 2.3 22:51:27 10° NNW 22:57:10 75° ENE 23:00:32 25° SE
ADEOS Rocket 3.6 22:53:14 24° SSE 22:58:12 78° ENE 23:06:01 10° NNW
ISS -1.1 23:00:48 10° E 23:00:48 10° E 23:00:54 10° E
Cosmos 1340 Rocket 3.6 22:58:42 31° SE 22:59:43 37° E 23:03:25 10° NNE
Gbstr 26 Del rocket 3.3 22:59:00 33° S 23:00:19 44° SE 23:05:03 10° ENE
Cosmos 1821 Rocket 4.1 23:01:39 10° NNW 23:07:50 68° W 23:11:22 26° S
Cosmos 1602 Rocket 4.1 23:05:35 24° SW 23:07:59 52° WNW 23:12:14 10° N
BREEZE-M DEB (TANK) 4.1 23:12:25 22° ESE 23:12:25 22° ESE 23:15:01 10° E
SL-27 R/B 4.1 23:13:18 20° E 23:13:18 20° E 23:15:37 10° NE
Cosmos 44 3.5 23:14:09 36° SSE 23:15:25 45° ESE 23:19:42 10° NE
Cosmos 972 Rocket 4.2 23:10:22 10° NNW 23:15:36 76° ENE 23:18:41 28° SSE
Cosmos 1833 4.5 23:14:26 30° S 23:16:51 51° ESE 23:22:16 10° NE
ERS-2 2.7 23:18:57 10° NNE 23:22:21 40° E 23:22:57 37° SE
Cosmos 2237 Rocket 4.4 23:18:40 10° N 23:23:01 22° NE 23:27:20 10° E
ALOS 2 2.7 23:21:37 36° S 23:23:16 66° WSW 23:27:40 10° NNW
Spot 4 4.5 23:21:49 28° SSW 23:23:54 44° W 23:28:31 10° NNW
CENTAUR R/B 3.8 23:22:31 19° SE 23:24:17 22° ESE 23:29:10 10° ENE
Cosmos 1605 Rocket 4.4 23:18:17 10° N 23:24:38 58° ENE 23:28:27 24° SSE
NOSS 8 (A) 4.1 23:29:31 62° S 23:29:53 72° SE 23:32:50 10° NE
COSMOS 2428 3.5 23:24:26 10° NNW 23:29:57 47° NE 23:34:37 14° SE
Cosmos 1777 Rocket 4.4 23:25:48 10° NNW 23:30:55 51° WSW 23:33:07 31° SSW
H-2A R/B 3.5 23:26:50 10° N 23:31:03 73° WNW 23:32:48 34° SSW
Cosmos 2058 3.0 23:29:58 36° SSW 23:31:35 71° W 23:35:47 10° N
Nadezhda 3 Rocket 4.2 23:28:02 24° SSW 23:31:54 65° WNW 23:38:03 10° N
SL-16 R/B 3.3 23:27:28 10° NW 23:32:26 32° WSW 23:34:48 23° SW
Cosmos 2219 Rocket 2.5 23:27:16 10° NNW 23:32:56 65° ENE 23:36:40 22° SE
Cosmos 1953 Rocket 3.5 23:33:03 38° S 23:34:44 86° E 23:39:10 10° N
USA 267 3.2 23:31:31 10° ENE 23:38:06 86° SE 23:44:40 10° WSW
ATLAS 5 CENTAUR R/B 3.5 23:35:31 10° W 23:38:56 28° NNW 23:42:50 10° NNE
SJ 16-02 2.6 23:35:21 10° NW 23:39:11 29° W 23:40:31 24° SW
SL-4 R/B 1.5 23:40:05 26° WSW 23:41:57 84° SSE 23:45:39 10° ENE
Cosmos 2322 3.9 23:36:25 10° NNW 23:42:07 70° ENE 23:45:45 23° SE
Cosmos 1825 Rocket 4.1 23:41:10 29° SW 23:43:06 52° WNW 23:47:22 10° N
Cosmos 1898 Rocket 4.2 23:38:26 10° NNW 23:43:27 47° ENE 23:47:02 18° SE
COSMOS 2455 4.2 23:44:57 10° NNW 23:50:32 37° NE 23:56:04 10° ESE
Cosmos 2221 2.5 23:46:19 10° NNW 23:50:42 79° W 23:52:14 40° S
PSLV R/B 3.8 23:49:00 10° NNE 23:53:45 70° ESE 23:55:36 36° S
